Temperature
7 8 8 9 9 10 10 10 10 11 11 11 11 11 12 12 12 12 13 13 13 13 13 13 13 13 13 13 13 13 13 13 13 13 12 13 13 13 13 13 13 13 13
7 7 8 8 9 9 9 10 10 10 11 11 11 11 12 12 12 12 12 12 12 12 12 12 12 12 12 12 13 13 12 12 12 12 12 11 12 12 13 13 13 13 13
6 7 7 8 8 8 9 9 9 10 10 11 11 11 11 11 11 11 11 11 12 12 12 12 12 12 12 12 12 12 12 12 12 12 12 11 11 11 12 12 12 13 13
6 6 7 7 8 8 8 9 9 9 10 10 10 10 10 11 11 11 11 11 11 11 12 12 12 12 12 12 12 12 12 12 12 11 11 12 12 11 11 12 12 12 12
5 6 6 7 7 8 8 8 9 9 10 10 10 10 10 10 10 10 10 11 11 11 11 11 11 12 12 12 12 11 11 11 11 11 11 11 11 11 11 11 11 11 11
5 5 6 6 7 7 8 8 8 9 9 9 9 9 9 10 10 10 10 10 10 10 11 11 11 11 11 11 11 11 11 11 11 11 11 11 11 11 11 11 11 11 11
4 5 5 6 6 7 7 7 8 8 8 9 9 9 9 9 9 10 10 10 10 10 10 10 10 11 11 11 11 11 11 11 11 11 11 10 10 11 11 10 10 10 10
4 4 5 5 5 6 6 7 7 7 7 8 8 9 9 9 9 9 9 9 9 10 10 10 10 10 10 10 10 10 10 10 10 10 10 10 10 10 10 10 10 9 9
4 4 4 5 5 5 6 6 6 6 7 7 7 8 8 8 9 9 9 9 9 9 9 9 9 10 10 10 10 10 10 9 9 9 9 9 9 9 10 10 10 9 8
3 3 4 4 4 5 5 5 6 6 6 6 7 7 8 8 8 8 8 8 9 9 9 9 9 9 9 9 9 9 9 9 9 9 9 9 9 9 9 9 9 9 9
3 3 4 4 4 4 4 5 5 5 6 6 6 7 7 8 8 8 8 8 8 8 8 8 9 9 9 9 9 8 8 8 8 8 8 8 8 8 8 8 8 8 8
3 3 3 4 4 4 4 4 5 5 5 5 6 6 7 7 7 8 8 8 8 8 8 8 8 8 8 8 8 8 8 8 8 8 8 8 8 8 8 8 8 8 7
3 3 3 3 3 4 4 4 4 4 5 5 6 6 6 7 7 7 7 7 7 7 7 7 7 7 7 7 7 7 7 7 7 7 7 7 7 7 7 7 7 7 7
3 3 3 3 3 3 3 4 4 4 4 5 5 5 5 6 6 6 6 6 6 6 6 6 7 7 7 6 6 6 6 6 7 7 7 7 6 7 7 7 7 7 7
3 3 3 3 3 3 3 3 3 4 4 4 4 4 5 5 5 5 5 5 5 5 6 6 6 6 6 6 6 6 6 6 6 6 6 6 6 6 6 6 6 6 6
2 2 3 3 3 3 3 3 3 3 3 4 4 4 4 4 4 4 4 5 5 5 5 5 5 5 5 5 5 5 5 5 5 5 5 5 5 5 6 5 6 6 6
3 3 3 2 2 3 3 3 3 3 3 3 3 3 4 4 4 4 4 4 4 4 4 5 5 5 5 5 5 5 5 5 5 4 5 5 5 5 5 5 5 5 5
3 3 2 2 2 2 2 2 3 3 3 3 3 3 3 3 3 3 4 4 4 4 4 4 4 4 4 4 4 4 4 4 4 4 4 4 4 4 4 4 4 4 4
3 3 2 2 2 2 2 2 2 2 2 2 2 2 2 2 3 3 3 3 3 3 3 3 3 3 3 3 3 3 3 3 3 3 3 3 3 3 3 3 3 3 3
3 2 2 2 2 2 2 2 2 2 2 2 2 1 2 2 2 2 2 2 2 3 3 3 3 3 2 2 2 2 2 2 2 2 2 2 2 2 2 3 3 3 3
3 2 2 2 2 2 2 2 1 1 1 1 1 1 1 1 1 1 1 2 2 2 2 2 2 2 2 2 2 2 1 1 1 1 1 2 2 2 2 2 2 2 2
2 2 2 2 1 1 1 1 1 1 1 1 1 1 1 1 1 1 1 1 1 1 1 1 1 1 1 1 1 1 1 0 0 0 1 1 1 1 1 1 1 1 1
2 2 2 1 1 1 1 1 0 0 0 0 0 0 0 0 0 0 0 0 0 0 0 0 0 0 0 0 0 -0 0 0 -0 -0 -0 -0 0 0 0 0 1 1 1
2 2 1 1 1 1 0 0 0 -0 -0 -0 -0 -0 -0 -0 -0 -0 -1 -1 -1 -1 -1 -1 -1 -1 -1 -1 -1 -1 -0 -0 -1 -1 -0 -0 -0 -0 -0 -0 -0 -0 -0
2 1 1 1 1 0 0 -0 -0 -0 -0 -0 -1 -1 -1 -1 -1 -1 -1 -1 -1 -1 -2 -2 -2 -2 -1 -1 -1 -1 -1 -1 -1 -1 -1 -1 -1 -1 -1 -1 -1 -1 -1
1 1 1 1 0 -0 -0 -1 -1 -1 -1 -1 -1 -1 -1 -1 -1 -2 -1 -1 -2 -2 -2 -2 -2 -2 -2 -2 -2 -2 -1 -2 -2 -1 -1 -1 -1 -2 -2 -2 -1 -1 -1
Wind_Speed
7 5 5 4 4 4 4 4 5 5 5 4 5 5 5 5 5 5 6 7 7 8 8 7 8 9 9 9 9 6 7 5 4 3 1 2 2 4 4 4 4 5 7
7 6 5 3 2 3 4 4 5 5 5 5 5 4 5 5 5 5 5 6 7 8 7 8 9 9 8 9 9 7 6 4 5 4 3 1 2 3 4 4 5 5 5
8 7 6 4 2 2 3 4 5 5 6 6 4 4 4 3 3 4 5 6 7 8 8 8 8 9 9 9 10 10 9 7 5 4 4 3 4 2 3 5 5 5 5
9 7 6 4 3 2 2 2 4 4 5 5 6 7 6 6 5 5 5 5 6 7 8 9 9 9 9 9 9 9 8 9 8 5 4 3 3 3 2 3 4 5 5
9 8 7 5 4 3 1 1 2 3 3 5 6 6 6 5 4 4 5 5 5 6 7 8 9 9 8 9 9 9 8 7 7 6 4 3 2 3 3 4 4 3 5
10 9 7 6 5 4 2 1 1 1 2 4 5 6 6 5 5 5 5 4 4 4 6 7 7 7 7 9 9 9 10 9 8 5 5 4 4 4 3 4 5 5 4
10 10 8 7 7 6 5 4 4 2 2 2 3 4 5 5 6 5 5 4 4 4 5 6 7 7 7 7 8 8 8 8 9 8 6 5 5 4 4 4 5 5 4
10 10 9 7 7 7 7 7 6 4 3 3 2 1 2 3 3 3 3 3 3 3 4 5 6 6 6 6 6 6 7 6 7 8 7 6 6 5 5 5 5 5 5
10 10 10 9 8 7 7 7 7 7 6 5 4 4 3 2 2 2 2 2 1 1 3 3 4 4 4 6 6 5 6 6 6 7 8 7 6 6 6 6 6 7 8
9 9 9 9 8 8 8 8 9 8 7 6 5 4 4 3 2 2 2 1 1 1 2 2 3 4 4 5 5 4 5 6 6 5 6 7 6 5 5 6 6 6 8
9 9 9 9 10 10 10 10 9 9 9 8 7 6 6 4 4 3 2 1 1 1 0 1 2 3 4 4 4 4 4 6 6 5 6 8 7 6 6 5 5 6 6
8 8 9 10 10 11 11 11 10 10 9 9 9 8 7 6 6 4 3 2 2 2 1 1 0 1 2 4 5 4 5 6 7 6 6 7 6 7 6 6 6 6 6
7 8 9 10 10 11 11 11 11 10 9 9 9 9 9 8 7 5 4 4 3 2 2 2 1 1 2 3 4 4 5 6 7 7 7 7 6 8 6 6 7 6 5
6 8 8 9 9 10 10 10 10 10 10 10 10 10 9 8 6 6 5 4 3 2 1 1 1 2 2 3 3 3 4 5 5 6 6 6 7 8 8 7 7 6 6
6 7 7 7 8 9 10 10 10 10 9 10 10 9 8 7 7 7 6 5 4 3 2 1 1 1 2 2 2 3 4 4 5 5 5 6 7 8 8 7 7 6 6
4 5 6 7 7 8 8 8 9 9 8 9 9 8 8 8 8 7 6 6 5 4 3 2 1 2 2 3 4 3 3 3 4 4 4 5 5 6 7 8 8 7 7
2 3 4 5 5 6 6 6 7 7 8 8 8 8 8 8 8 7 7 6 6 4 3 2 2 2 3 5 4 4 2 2 3 4 4 4 4 5 4 5 5 6 8
2 2 3 3 4 5 5 5 6 7 7 8 8 9 9 8 8 7 7 6 5 4 3 3 3 3 4 6 5 5 2 3 3 4 4 4 4 4 4 3 3 4 4
2 1 1 2 3 4 4 4 6 7 7 8 8 8 8 8 8 8 8 6 5 5 4 4 4 3 4 5 6 5 2 2 3 3 3 3 4 5 5 3 3 3 4
1 0 1 2 2 3 3 4 5 6 7 7 7 7 7 7 7 7 6 6 5 4 4 4 4 3 4 5 6 6 2 2 3 3 3 4 4 5 5 3 2 3 3
1 1 1 1 2 3 3 4 5 5 6 6 6 7 6 6 6 6 6 6 5 4 4 4 4 3 4 5 7 7 3 2 3 3 3 3 6 6 6 5 3 3 3
1 1 1 1 2 2 3 4 4 5 5 5 6 6 6 6 6 6 5 5 5 4 4 4 5 3 3 5 7 8 6 5 3 3 3 3 6 6 6 5 3 3 2
1 0 0 1 2 2 2 3 4 5 5 5 5 6 6 5 5 5 5 5 5 4 5 5 5 5 4 5 8 8 8 7 4 3 5 5 6 5 4 4 3 2 1
1 1 1 1 2 2 2 3 4 4 4 5 6 6 6 6 6 5 4 4 4 5 5 5 5 5 4 4 4 4 4 5 4 3 3 5 5 4 3 3 3 2 0
1 1 2 2 3 3 3 3 3 3 4 5 5 5 5 6 6 5 4 5 4 5 6 5 4 5 5 6 8 5 3 3 4 4 2 2 2 3 3 3 2 2 2
2 2 2 3 3 3 3 3 3 2 3 4 5 4 5 5 5 5 6 7 7 9 8 7 7 6 7 8 8 7 6 6 5 3 1 1 2 2 2 2 2 2 1
Wind_Direction
294 295 279 262 239 216 204 209 209 213 195 180 177 181 193 195 188 192 187 190 187 186 187 192 186 184 191 193 186 183 184 187 166 156 213 281 235 225 225 214 210 215 220
333 331 317 305 248 211 208 208 214 209 199 190 184 183 188 189 185 190 193 196 191 190 195 194 193 191 192 193 189 177 179 184 176 168 160 223 275 245 225 216 216 219 209
335 334 340 327 307 248 216 218 217 211 198 190 180 185 175 166 175 186 200 206 199 196 196 194 197 195 194 196 196 189 186 188 191 183 169 178 219 247 230 222 221 216 212
348 347 344 349 343 313 261 219 212 202 197 188 186 186 187 189 194 194 201 207 204 203 203 196 196 198 196 195 196 194 195 187 193 200 209 196 172 196 236 232 220 217 219
354 358 357 351 351 345 328 244 208 187 194 191 191 187 195 195 188 184 190 202 203 203 205 201 196 196 198 196 196 197 196 196 199 198 198 205 213 203 214 246 237 236 229
359 0 4 7 7 5 13 19 90 144 182 182 187 191 193 188 184 195 195 195 194 199 202 201 198 197 200 199 197 196 198 201 203 205 203 200 200 204 213 235 237 247 244
2 3 5 9 12 11 19 40 53 59 82 127 168 187 192 187 195 198 189 187 195 202 202 200 199 197 199 198 194 193 201 205 204 206 216 219 224 217 222 232 245 258 263
5 9 15 19 14 14 21 38 44 49 55 62 55 70 142 174 190 188 182 190 199 200 193 198 201 198 196 197 193 194 200 208 213 214 217 228 231 226 223 223 233 257 264
9 14 19 24 21 20 24 36 40 39 39 38 35 44 64 116 129 136 154 177 172 184 183 194 200 199 198 199 194 199 204 207 217 220 221 229 236 232 232 224 218 228 251
11 14 18 21 22 27 30 37 39 38 36 33 34 43 55 84 97 107 116 120 115 142 178 206 208 197 202 203 196 201 206 211 220 229 228 233 237 235 235 232 234 231 237
10 13 16 22 26 29 32 34 34 36 34 34 36 42 41 51 67 73 82 99 74 74 113 204 213 210 203 204 199 205 212 222 228 230 234 238 234 232 232 231 233 238 239
11 13 18 22 26 29 29 30 31 33 30 29 33 36 35 42 48 48 42 53 54 31 357 4 301 254 222 213 206 211 219 227 232 233 236 243 243 238 236 232 235 240 241
15 17 20 23 23 23 24 25 25 26 26 30 33 32 30 34 36 28 25 31 31 19 3 1 339 292 253 232 223 217 223 227 232 232 235 244 246 244 246 241 237 240 245
20 22 19 17 18 18 18 20 20 19 22 26 29 29 24 23 23 20 20 22 19 8 336 287 273 260 246 234 238 235 237 238 243 242 241 245 247 246 243 241 239 240 240
16 16 13 12 15 17 15 16 15 14 19 24 24 19 16 20 23 23 18 13 10 356 323 295 294 273 246 241 261 255 247 245 255 257 252 250 253 257 248 246 240 233 236
3 4 8 10 10 12 10 10 9 7 15 23 20 13 15 16 16 16 14 14 11 1 356 353 340 323 313 315 312 291 245 252 263 272 270 267 256 271 264 257 251 240 232
337 350 354 354 358 0 2 5 2 4 14 18 15 11 11 12 8 5 7 6 2 359 356 356 356 338 325 335 328 313 282 259 262 268 277 288 288 293 272 263 269 261 254
292 320 339 347 351 353 357 358 5 11 14 14 9 5 4 3 0 2 360 356 353 351 352 351 345 335 329 334 331 334 310 270 267 262 261 270 278 285 294 292 285 281 275
230 255 301 336 350 352 349 1 11 13 13 8 1 356 355 353 353 353 349 346 348 349 348 347 345 336 323 330 334 337 301 288 287 284 278 276 271 298 318 316 310 319 315
193 179 13 16 7 346 351 17 12 10 3 351 344 344 346 345 340 337 336 337 340 338 339 340 338 335 324 332 342 341 308 300 302 301 293 300 304 311 323 309 294 295 302
163 109 73 16 333 342 7 16 5 351 338 337 338 340 339 335 332 333 334 336 338 341 343 338 333 330 331 336 343 343 339 314 309 308 307 302 316 317 318 317 285 278 300
70 78 61 337 330 355 15 0 336 327 334 335 336 334 333 334 336 334 334 338 337 341 344 346 339 337 335 341 337 339 340 335 314 304 303 309 316 316 316 320 315 317 338
181 172 228 305 321 340 357 320 312 323 329 332 333 330 333 335 334 335 338 342 344 342 340 339 333 332 334 336 340 338 339 338 329 307 314 324 329 330 331 333 339 349 21
195 200 218 283 303 307 309 297 310 322 327 329 331 335 339 339 340 339 338 337 335 331 328 327 322 320 323 323 328 328 335 341 338 326 331 344 348 351 351 357 0 1 27
211 208 227 254 273 285 294 307 313 324 325 325 331 333 334 331 331 330 325 322 310 312 313 309 308 311 312 315 323 327 326 330 325 337 356 4 7 6 1 358 358 3 20
215 234 245 258 270 271 282 298 308 320 325 326 328 326 327 326 327 325 327 327 326 324 326 325 321 315 313 319 325 329 331 335 337 350 356 341 341 336 333 330 332 340 358
Height
1432 1430 1429 1430 1430 1431 1433 1436 1440 1444 1447 1450 1453 1457 1460 1463 1467 1470 1474 1478 1481 1484 1488 1491 1493 1497 1500 1503 1506 1510 1513 1516 1519 1521 1523 1525 1526 1528 1529 1530 1531 1532 1533
1428 1427 1426 1426 1426 1428 1430 1433 1435 1438 1442 1445 1449 1452 1455 1458 1461 1465 1469 1473 1476 1479 1483 1485 1488 1491 1495 1499 1502 1504 1507 1511 1514 1516 1518 1519 1521 1521 1523 1524 1525 1526 1528
1428 1425 1423 1423 1423 1424 1426 1429 1431 1434 1437 1440 1444 1448 1451 1454 1457 1460 1463 1467 1471 1474 1477 1480 1483 1486 1489 1492 1496 1499 1501 1504 1508 1511 1512 1514 1513 1515 1516 1518 1519 1521 1521
1428 1425 1422 1421 1421 1421 1422 1424 1427 1430 1432 1436 1439 1442 1445 1448 1451 1455 1458 1462 1465 1468 1472 1475 1478 1481 1484 1487 1490 1493 1496 1499 1501 1505 1507 1509 1509 1511 1510 1512 1513 1515 1515
1429 1425 1422 1421 1420 1419 1420 1422 1424 1425 1428 1432 1435 1438 1441 1444 1447 1451 1454 1458 1460 1463 1466 1469 1472 1475 1478 1481 1484 1487 1490 1493 1495 1497 1500 1502 1504 1505 1505 1505 1506 1507 1508
1430 1426 1423 1421 1420 1419 1420 1420 1420 1421 1425 1428 1431 1434 1436 1439 1443 1446 1449 1452 1455 1457 1460 1463 1467 1469 1472 1475 1478 1480 1484 1486 1489 1491 1493 1495 1497 1498 1499 1499 1499 1500 1501
1432 1428 1425 1422 1420 1420 1419 1419 1419 1420 1423 1425 1427 1430 1432 1436 1439 1441 1444 1446 1449 1452 1455 1458 1461 1464 1466 1469 1472 1474 1477 1479 1482 1484 1487 1489 1491 1493 1494 1494 1494 1493 1493
1435 1431 1427 1424 1422 1421 1419 1419 1418 1419 1421 1423 1425 1426 1429 1432 1435 1437 1440 1443 1445 1448 1450 1453 1456 1459 1461 1464 1466 1468 1471 1473 1475 1477 1480 1483 1485 1487 1488 1488 1488 1487 1486
1439 1434 1430 1427 1425 1423 1421 1420 1419 1419 1420 1421 1422 1423 1426 1429 1431 1434 1437 1439 1441 1443 1446 1449 1451 1454 1456 1459 1460 1462 1465 1468 1470 1471 1474 1476 1478 1480 1481 1481 1482 1483 1480
1441 1437 1434 1431 1428 1426 1424 1422 1421 1421 1421 1422 1422 1423 1424 1426 1429 1431 1433 1435 1438 1440 1442 1445 1447 1449 1452 1453 1455 1457 1459 1462 1463 1465 1467 1468 1470 1472 1473 1474 1475 1475 1474
1444 1440 1437 1433 1431 1428 1426 1423 1423 1422 1423 1422 1422 1423 1423 1425 1426 1428 1430 1433 1435 1437 1439 1441 1443 1445 1447 1448 1449 1451 1453 1455 1457 1458 1460 1461 1463 1464 1465 1466 1467 1467 1467
1448 1444 1440 1437 1433 1430 1428 1426 1426 1425 1424 1423 1422 1423 1424 1424 1425 1427 1429 1431 1432 1434 1436 1438 1439 1440 1442 1443 1445 1446 1448 1450 1450 1451 1453 1454 1455 1456 1458 1458 1459 1459 1459
1449 1446 1443 1439 1436 1434 1432 1430 1429 1428 1427 1425 1424 1424 1424 1424 1425 1427 1428 1429 1430 1431 1433 1434 1435 1436 1437 1438 1439 1440 1442 1443 1444 1445 1446 1447 1448 1448 1449 1450 1450 1451 1451
1452 1449 1446 1443 1441 1438 1436 1434 1432 1431 1429 1428 1427 1426 1425 1425 1426 1426 1426 1427 1428 1429 1430 1431 1431 1432 1433 1433 1434 1435 1436 1437 1438 1439 1439 1440 1441 1441 1441 1442 1442 1443 1443
1454 1451 1449 1446 1444 1442 1440 1437 1436 1434 1432 1430 1429 1428 1427 1426 1426 1425 1425 1425 1425 1426 1427 1427 1427 1428 1428 1429 1429 1430 1431 1431 1432 1432 1433 1433 1434 1434 1434 1434 1434 1435 1434
1456 1454 1452 1449 1447 1445 1443 1441 1439 1437 1435 1433 1432 1430 1429 1427 1426 1425 1424 1424 1423 1423 1423 1423 1424 1424 1424 1425 1425 1425 1426 1426 1426 1426 1426 1427 1427 1427 1427 1427 1428 1428 1427
1457 1456 1454 1452 1450 1448 1446 1444 1441 1439 1437 1435 1433 1432 1429 1427 1426 1425 1424 1422 1421 1421 1421 1420 1421 1421 1421 1421 1421 1421 1421 1421 1421 1420 1420 1420 1420 1420 1420 1420 1420 1420 1420
1458 1456 1455 1453 1452 1450 1448 1446 1444 1441 1439 1437 1435 1433 1431 1429 1427 1426 1424 1423 1421 1420 1419 1418 1418 1417 1417 1417 1417 1417 1416 1416 1416 1415 1415 1415 1414 1414 1414 1413 1413 1413 1413
1457 1456 1455 1454 1452 1451 1449 1447 1444 1442 1440 1438 1436 1434 1432 1430 1428 1426 1424 1422 1420 1419 1417 1416 1415 1414 1413 1413 1413 1413 1411 1411 1411 1411 1410 1410 1410 1409 1409 1408 1407 1406 1407
1456 1455 1454 1453 1452 1450 1449 1447 1444 1442 1440 1438 1437 1435 1432 1430 1428 1426 1424 1421 1419 1417 1416 1415 1414 1412 1411 1410 1410 1409 1407 1407 1406 1406 1406 1406 1405 1404 1403 1403 1402 1402 1402
1455 1454 1453 1452 1450 1449 1448 1446 1444 1442 1441 1439 1436 1434 1432 1430 1428 1425 1423 1420 1418 1416 1414 1412 1411 1410 1409 1407 1406 1405 1404 1403 1402 1402 1401 1401 1400 1399 1399 1399 1399 1398 1398
1453 1452 1452 1451 1450 1448 1446 1445 1443 1442 1440 1438 1436 1434 1431 1429 1427 1424 1421 1419 1417 1414 1411 1410 1409 1407 1406 1405 1403 1402 1402 1401 1399 1398 1397 1397 1396 1396 1395 1395 1394 1394 1394
1451 1451 1450 1449 1448 1447 1445 1443 1442 1441 1439 1436 1434 1432 1430 1427 1425 1422 1420 1417 1415 1412 1410 1408 1406 1404 1403 1402 1401 1399 1398 1397 1396 1395 1394 1394 1393 1392 1392 1391 1391 1391 1391
1450 1449 1448 1447 1446 1445 1443 1442 1441 1439 1437 1435 1433 1430 1428 1425 1423 1421 1418 1416 1413 1411 1409 1407 1404 1402 1400 1399 1398 1396 1395 1394 1393 1392 1391 1390 1390 1390 1389 1388 1388 1388 1388
1448 1447 1446 1445 1444 1443 1442 1440 1439 1437 1435 1434 1431 1428 1426 1424 1421 1419 1417 1415 1413 1411 1409 1406 1404 1401 1398 1397 1396 1395 1393 1392 1390 1389 1388 1387 1387 1386 1386 1386 1386 1386 1385
1445 1444 1444 1443 1442 1441 1439 1438 1437 1435 1433 1431 1429 1427 1424 1422 1420 1417 1415 1413 1412 1409 1407 1405 1402 1399 1398 1396 1394 1393 1391 1390 1389 1388 1386 1385 1385 1384 1384 1383 1383 1383 1383